Regional Weather Roundup
Issued by NWS Lake Charles, LA

Current Version | Previous Version | Text Only | Print | Product List | Glossary On
Versions: 1 2 3 4 5 6 7 8 9 10 11 12 13 14 15 16 17 18 19 20 21 22 23 24 25 26 27 28 29 30 31 32 33 34 35 36 37 38 39 40 41 42 43 44 45 46 47 48 49 50
000
ASUS44 KLCH 261010
RWRLCH
RWRLCH
REGIONAL WEATHER ROUNDUP
NATIONAL WEATHER SERVICE LAKE CHARLES LA
400 AM CST FRI DEC 26 2014

Note: "fair" indicates few or no clouds below 12,000 feet with no
significant weather and/or obstructions to visibility.


ACROSS SOUTHEAST TEXAS

CITY           SKY/WX    TMP DP  RH WIND       PRES   REMARKS
BEAUMONT       CLOUDY    62  55  77 SE13      30.04F
BEAUMONT CITY  CLOUDY    59  55  84 SE7       30.05F
ORANGE         CLOUDY    59  54  83 SE6       30.08S
JASPER         CLOUDY    50  48  92 SE6       30.09F
$$

ACROSS CENTRAL LOUISIANA

CITY           SKY/WX    TMP DP  RH WIND       PRES   REMARKS
LEESVILLE      CLOUDY    48  45  89 SE8       30.09F
FULLERTON        N/A     50  44  80 VRB5      30.09F
ALEXANDRIA INT CLOUDY    44  40  85 E5        30.13S
ESLER FIELD    CLOUDY    42  39  89 CALM      30.15S
DERIDDER       CLOUDY    50  46  85 CALM      30.11F
OAKDALE        CLOUDY    46  43  88 CALM      30.13S
OPELOUSAS        N/A     46  42  84 E5        30.14S
$$

ACROSS SOUTHWEST AND SOUTH CENTRAL LOUISIANA

CITY           SKY/WX    TMP DP  RH WIND       PRES   REMARKS
SULPHUR        CLOUDY    54  50  89 E7        30.09F
LAKE CHARLES   CLOUDY    52  48  86 E8        30.09F
CHENNAULT INT  NOT AVBL
CAMERON PHI      N/A     61  55  82 SE9       30.11S
DEQUINCY       PTSUNNY   51  49  93 E5        30.09S
JENNINGS         N/A     49  46  92 E7        30.11F
LAFAYETTE      CLOUDY    48  43  82 CALM      30.14S
NEW IBERIA     CLOUDY    50  46  86 E7        30.13F
ABBEVILLE        N/A     48  45  89 E5        30.12F
PATTERSON      CLOUDY    50  46  87 E5        30.14F
SALT POINT       N/A     62  49  62 CALM      30.11F
$$

SELECTED SITES ACROSS THE REGION

CITY           SKY/WX    TMP DP  RH WIND       PRES   REMARKS
HOUSTON BUSH   CLOUDY    60  54  80 SE5       30.02F
HOUSTON HOBBY  CLOUDY    62  56  80 SE5       30.01F
GALVESTON      CLOUDY    64  59  83 S13       30.03F
COLLEGE STAT   CLOUDY    58  51  78 S12       29.99F
CONROE         CLOUDY    54  49  83 SE6       30.03F
HUNTSVILLE     CLOUDY    58  51  78 SE5       30.01S
LUFKIN         CLOUDY    52  47  83 E7        30.05F
SHREVEPORT     CLOUDY    48  44  86 SE9       30.09S
MONROE         CLOUDY    44  39  82 CALM      30.18R
NATCHEZ MS     CLOUDY    45  37  76 CALM      30.18R
BATON ROUGE    CLOUDY    44  40  85 E7        30.16F
N.O. INTL ARPT MOCLDY    45  41  86 E5        30.15F
SLIDELL        PTCLDY    39  37  92 N6        30.17F
$$

MARINE REPORTS

STATION/POSITION TIME  TEMP    WIND        PRES    VSBY  WAVE
                       AIR SEA DIR/SP/G                  HT/PER
                 (UTC) (F)     (DEG/KT/KT) (MB)    (MI)  (FT/S)
BUOY 30 S HIGH I 1000   65 60  150/ 14/ 16 1016.4F         6/ 6
SEA RIM ST PARK  1000   61     140/  8/ 10 1017.9F
PORT ARTHUR      1000      58  140/  7/ 10 1017.8F
SABINE PASS N    1000   62 60  160/ 10/ 13 1017.6F
TEXAS POINT      NOT AVBL
CALCASIEU PASS   1000   61 58  160/ 10/ 12   N/A
LK CHARLES BEACH 1000   52 56              1018.9F
MARSH ISLAND     NOT AVBL
FRESH WATER LOCK 1000   59 58   90/  4/  6 1019.3F
AMERADA PASS     1000   53 50  100/  5/  8 1019.8F
$$


USA.gov is the U.S. government's official web portal to all federal, state and local government web resources and services.